This is the latest recevied weather packets stored in our database for station/object IU0KRR-10. If no packets are shown the sender has not sent any weather packets the latest 1 day(s).
| Time | Temp. | Humidity | Pressure | Rain* | Wind** | Luminosity | Snow |
|---|---|---|---|---|---|---|---|
| 1778093980 | 21.67° C | 40% | 869.9 hPa | - | - | - | - |
| 1778093080 | 22.22° C | 40% | 870 hPa | - | - | - | - |
| 1778092180 | 22.22° C | 38% | 869.8 hPa | - | - | - | - |
| 1778084979 | 22.78° C | 39% | 869.4 hPa | - | - | - | - |
| 1778084079 | 23.33° C | 38% | 869.5 hPa | - | - | - | - |
| 1778083179 | 23.33° C | 37% | 869.5 hPa | - | - | - | - |
| 1778082279 | 22.78° C | 37% | 869.5 hPa | - | - | - | - |
| 1778077779 | 22.22° C | 36% | 869.6 hPa | - | - | - | - |
| 1778075977 | 22.22° C | 35% | 869.7 hPa | - | - | - | - |
| 1778074177 | 22.22° C | 37% | 870 hPa | - | - | - | - |
| 1778071476 | 22.22° C | 36% | 870.2 hPa | - | - | - | - |
| 1778070576 | 22.22° C | 37% | 870 hPa | - | - | - | - |
| 1778069676 | 22.22° C | 37% | 870 hPa | - | - | - | - |
| 1778067976 | 22.22° C | 36% | 870.1 hPa | - | - | - | - |
| 1778067875 | 22.22° C | 36% | 870.1 hPa | - | - | - | - |
| 1778066972 | 21.67° C | 35% | 870.2 hPa | - | - | - | - |
| 1778066072 | 22.22° C | 34% | 870.3 hPa | - | - | - | - |
| 1778065172 | 22.22° C | 35% | 870.4 hPa | - | - | - | - |
| 1778061570 | 21.67° C | 37% | 870.3 hPa | - | - | - | - |
| 1778056204 | 20° C | 41% | 869.8 hPa | - | - | - | - |
| 1778056168 | 20° C | 41% | 869.8 hPa | - | - | - | - |
| 1778055268 | 20° C | 40% | 869.6 hPa | - | - | - | - |
| 1778051667 | 18.89° C | 39% | 869.5 hPa | - | - | - | - |
| 1778050767 | 18.89° C | 40% | 869.5 hPa | - | - | - | - |
| 1778049867 | 18.89° C | 40% | 869.5 hPa | - | - | - | - |
* Rain since midnight (hover to see other rain measurements)
** Current wind speed in m/s (hover to see current wind gust speed)